Volver al catálogo

NOAA 16 DEB

ActivoPO
NORAD 41237·DEBRIS·🇺🇸 United States

Lanzado Sep 21, 2000 desde Vandenberg Space Force Base

Loading…

Próximos Pases (próximas 24 horas)

TLE

ActualizadoSource: Space-Track

Época: Sep 14, 2026, 13:03 UTC

1 41237U 00055ES  26257.54396488  .00004690  00000-0  10550-2 0  9998
2 41237  98.9817 152.4991 0035331 122.6255 237.8359 14.56592927563292

Sigue NOAA 16 DEB en tiempo real con AllMySat

Download on the App Store